[Iaude] MPEC X82: 2023 XP1 [a=1.87,e=0.52,i=2.8,H=24.7]

mpec at marsden.cfa.harvard.edu mpec at marsden.cfa.harvard.edu
Tue Dec 5 16:23:56 EST 2023


M.P.E.C. 2023-X82                              Issued 2023 December 5, 21:22 UT

     The Minor Planet Electronic Circulars contain information on unusual
         minor planets, routine data on comets and natural satellites,
         and occasional editorial announcements.  They are published
    on behalf of Division F of the International Astronomical Union by the
          Minor Planet Center, Smithsonian Astrophysical Observatory,
                          Cambridge, MA 02138, U.S.A.
			  
             Prepared using the Tamkin Foundation Computer Network

                              MPC at CFA.HARVARD.EDU
            URL https://www.minorplanetcenter.net/    ISSN 1523-6714

                                    2023 XP1                                    


Observations:
     K23X01P*1C2023 12 04.15148723 46 21.594+17 14 15.65         20.20GVEX082G96
     K23X01P 1C2023 12 04.15712823 46 15.384+17 14 25.48         21.59GVEX082G96
     K23X01P 1C2023 12 04.16276423 46 09.368+17 14 34.48         20.41GVEX082G96
     K23X01P 1C2023 12 04.16839623 46 03.144+17 14 44.63         20.35GVEX082G96
     K23X01P KC2023 12 04.23692323 44 48.577+17 16 37.27         20.17GVEX082I52
     K23X01P KC2023 12 04.23848723 44 46.882+17 16 39.83         20.51GVEX082I52
     K23X01P KC2023 12 05.07916923 29 20.735+17 41 32.57         20.38GVEX082I52
     K23X01P KC2023 12 05.08094523 29 18.560+17 41 35.41         20.24GVEX082I52
     K23X01P KC2023 12 05.08272823 29 16.357+17 41 38.94         20.41GVEX082I52
     K23X01P KC2023 12 05.08451723 29 14.122+17 41 41.71         20.72GVEX082I52
     K23X01P KC2023 12 05.71757 23 16 14.76 +17 58 10.6                VEX082204
     K23X01P KC2023 12 05.73567 23 15 50.38 +17 58 38.6          20.5 GVEX082204

Observer details:
204 Schiaparelli Observatory.  Observers L. Buzzi, G. Galli.  0.84-m f/3.5
    reflector + CCD.
G96 Mt. Lemmon Survey.  Observer J. K. Hogan.  Measurers E. C. Beshore, D.
    Fay, J. B. Fazekas, D. C. Fuls, A. R. Gibbs, A. D. Grauer, H. Groeller, J.
    K. Hogan, R. A. Kowalski, S. M. Larson, G. J. Leonard, D. Rankin, R. L.
    Seaman, F. C. Shelly, K. W. Wierzchos.  1.5-m reflector + 10K CCD.
I52 Steward Observatory, Mt. Lemmon Station.  Observer G. J. Leonard.
    Measurers E. C. Beshore, D. Fay, J. B. Fazekas, D. C. Fuls, A. R. Gibbs,
    A. D. Grauer, H. Groeller, J. K. Hogan, R. A. Kowalski, S. M. Larson, G.
    J. Leonard, D. Rankin, R. L. Seaman, F. C. Shelly, K. W. Wierzchos.  1.0-m
    prime focus + CCD.

Orbital elements:
2023 XP1                                                 Earth MOID = 0.0189 AU
Epoch 2023 Sept. 13.0 TT = JDT 2460200.5                MPC                     
M 314.11464              (2000.0)            P               Q                  
n   0.38600546     Peri.   67.69063     -0.46264706     -0.88572628             
a   1.8681300      Node    49.92398     +0.79399982     -0.43305604             
e   0.5246264      Incl.    2.84914     +0.39436276     -0.16718679             
P   2.55           H   24.76          G   0.15           U   8                  
Residuals in seconds of arc
231204 G96  0.2+  0.1-    231204 I52  0.0   0.0     231205 I52  0.3+  0.3+
231204 G96  0.6-  0.0     231204 I52  0.0   0.1+    231205 I52  0.1+  0.0
231204 G96 (1.2+  0.6-)   231205 I52  0.4-  0.0     231205 204  0.1+  0.1+
231204 G96  0.0   0.0     231205 I52  0.0   0.2-    231205 204  0.1-  0.1-

Ephemeris:
2023 XP1                 a,e,i = 1.87, 0.52, 3                   q = 0.8881
Date    TT    R. A. (2000) Decl.     Delta      r    Elong.  Phase     V
2023 11 05    02 19 25.6 +11 18 55   0.2171  1.2078   173.9     5.0    22.3
...
2023 11 20    01 41 59.4 +12 29 19   0.1240  1.0984   151.0    25.8    21.6
...
2023 11 28    00 58 23.9 +14 28 37   0.08216 1.0449   133.4    43.3    21.1
...
2023 12 04    23 49 00.4 +17 10 23   0.05534 1.0080   112.2    64.8    20.8
2023 12 05    23 30 54.2 +17 39 59   0.05159 1.0022   107.3    69.9    20.8
2023 12 06    23 10 03.5 +18 06 35   0.04817 0.9964   101.8    75.4    20.8
...
2023 12 12    20 09 23.8 +16 00 35   0.03915 0.9645    58.0   120.0    22.5
...
2023 12 20    17 11 50.5 +04 09 55   0.06295 0.9294    29.0   149.1    26.9
...
2024 01 04    15 55 52.1 -04 41 04   0.1435  0.8916    47.0   126.3    25.7

A. U. Tomatic                (C) Copyright 2023 MPC           M.P.E.C. 2023-X82





More information about the Iaude mailing list